星链-35870(STARLINK-35870)

导读

STARLINK-35870是美国SpaceX星链计划的卫星,于2025年11月21日发射升空,星链项目旨在构建全球卫星互联网星座,为全球不同地区提供高速宽带网络服务,尤其覆盖地面基础设施难以到达的偏远区域,STARLINK-35870入轨后将进一步扩充星链星座规模,提升星座整体服务能力。

Basic Information
目录编号:
66572
目录名称:
STARLINK-35870
国际标识:
2025-268R
轨道中心:
EARTH
卫星名称:
星链-35870
卫星全名:
星链-35870(STARLINK-35870)
卫星状态:
在轨 (已飞行287 天)
发射日期:
2025-11-21 UTC
国别 :
美国 (US)
星等 :
--
Orbit Information
数据来源 国际轨道数据 AOE轨道数据
星历时间 2026-09-04T05:59:22+0800
13小时前
查看轨道信息
2026-08-31T11:00:00+0800
4天前
查看轨道信息
半长轴 6861.182km 6861.292km
偏心率 0.0001298 0.0000959
轨道倾角 43.000° 43.002°
近地点辐角 271.546° 270.735°
升交点赤经 60.841° 82.255°
平近点角 88.524° 95.772°
近地点 482.154km 482.497km
远地点 483.936km 483.813km
周期 94.267分钟 94.269分钟
每日圈数 15.275817 15.275447
Detailed Information
固有亮度:
5
最大亮度:
2.5
卫星平台:
Starlink V1.0
覆盖范围:
全球
运营商:
太空探索技术公司
运营商所在国:
美国
制造商(研发单位):
太空探索技术公司
制造商所在国:
美国
使用方式:
暂无
Satellite Introduction
Starlink 计划是 SpaceX 推出的全球卫星互联网项目,通过发射低轨道卫星,为全球尤其是偏远地区提供高速、低延迟的互联网服务。自 2019 年起,Starlink 已部署数千颗卫星,旨在缩小全球数字鸿沟,推动互联网普及。该项目还为军事、航空等行业提供通信支持,带来广泛经济效益。
2D Orbit Map
3D Orbit Map
Orbit Altitude Analysis Chart
Orbit Inclination Analysis Chart
Orbit Comprehensive Analysis Chart
View Comprehensive Chart
Conjunction Data List
Event ID Objects TCA Miss Dist (km) Collision Risk Probability Collision Risk Index (CRI) Action
CDM_260905-104505-484506-657221
2026-09-05T
10:45:51+0000
0.696 km
远距离
6.652869E-5 中风险 0.71
CDM_260901-233506-469906-657221
2026-09-01T
23:35:56+0000
1.134 km
极远距离
1.558077E-5 中风险 0.59
CDM_260905-091105-484506-657221
2026-09-05T
09:11:42+0000
1.809 km
极远距离
2.904585E-6 低风险 0.44
CDM_260905-122005-484506-657221
2026-09-05T
12:20:01+0000
2.025 km
极远距离
2.158742E-6 低风险 0.42